Weather History for Inverness, United Kingdom

Change the Weather History Date:

Monday, February 18, 2013

  Actual Average Record
Temperature  
Mean Temperature 36 °F -  
Max Temperature 50 °F 44 °F 53 °F (1998)
Min Temperature 23 °F 32 °F 21 °F (2006)
Degree Days  
Heating Degree Days 28    
Moisture  
Dew Point 28 °F    
Average Humidity 85    
Maximum Humidity 100    
Minimum Humidity 50    
Precipitation  
Precipitation 0.00 in - - ()
Sea Level Pressure  
Sea Level Pressure 30.07 in    
Wind  
Wind Speed 2 mph ()    
Max Wind Speed 6 mph    
Max Gust Speed -    
Visibility 6.2 miles    
Events      
Averages and records for this station are not official NWS values.
T = Trace of Precipitation, MM = Missing Value Source: Averaged Metar Reports

Daily Weather History Graph

Daily Weather History Graph

Search for Another Location

Airport:

Trip Planner

Search our weather history database for the weather conditions in past years. The results will help you decide how hot, cold, wet, or windy it might be!

Date:

Astronomy

Feb. 18, 2013 Rise Set
Actual Time 7:38 AM GMT 5:22 PM GMT
Civil Twilight 6:58 AM GMT 6:03 PM GMT
Nautical Twilight 6:13 AM GMT 6:48 PM GMT
Astronomical Twilight 5:28 AM GMT 7:33 PM GMT
Moon 10:21 AM GMT (2/18) 2:40 AM GMT (2/18)
Length of Visible Light 11h 04m
Length of Day
9h 44m
First Quarter, 56% of the Moon is Illuminated
Feb 18
First Quarter
Feb 25
Full
Mar 4
Last Quarter
Mar 11
New
Mar 19
First Quarter

Hourly Weather History & Observations

Time (GMT) Temp. Windchill Dew Point Humidity Pressure Visibility Wind Dir Wind Speed Gust Speed Precip Events Conditions
12:20 AM 30.2 °F - 28.4 °F 93% 30.04 in 6.2 mi Variable 2.3 mph - N/A   Unknown
12:50 AM 28.4 °F - 26.6 °F 93% 30.04 in 6.2 mi Calm Calm - N/A   Unknown
1:20 AM 28.4 °F 24.6 °F 26.6 °F 93% 30.04 in 6.2 mi South 3.5 mph - N/A   Unknown
1:50 AM 30.2 °F - 28.4 °F 93% 30.04 in 6.2 mi ENE 2.3 mph - N/A   Unknown
2:20 AM 24.8 °F - 23.0 °F 93% 30.04 in 6.2 mi South 2.3 mph - N/A   Unknown
2:50 AM 24.8 °F 20.5 °F 23.0 °F 93% 30.04 in 6.2 mi South 3.5 mph - N/A   Unknown
3:20 AM 26.6 °F 20.0 °F 24.8 °F 93% 30.04 in 6.2 mi SSW 5.8 mph - N/A   Unknown
3:50 AM 28.4 °F - 26.6 °F 93% 30.04 in 6.2 mi Calm Calm - N/A   Unknown
4:20 AM 28.4 °F - 26.6 °F 93% 30.04 in 6.2 mi SW 2.3 mph - N/A   Unknown
4:50 AM 28.4 °F 23.3 °F 26.6 °F 93% 30.04 in 6.2 mi SW 4.6 mph - N/A   Unknown
5:20 AM 28.4 °F 23.3 °F 26.6 °F 93% 30.04 in 6.2 mi SSW 4.6 mph - N/A   Unknown
5:50 AM 28.4 °F 22.2 °F 28.4 °F 100% 30.04 in 6.2 mi SSW 5.8 mph - N/A   Unknown
6:20 AM 28.4 °F 23.3 °F 26.6 °F 93% 30.04 in - South 4.6 mph - N/A   Clear
6:50 AM 24.8 °F - 23.0 °F 93% 30.06 in - Calm Calm - N/A   Clear
7:20 AM 24.8 °F - 23.0 °F 93% 30.06 in - Calm Calm - N/A   Clear
7:50 AM 23.0 °F - 21.2 °F 93% 30.06 in - Calm Calm - N/A   Clear
8:20 AM 24.8 °F - 24.8 °F 100% 30.06 in - Calm Calm - N/A   Clear
8:50 AM 28.4 °F - 26.6 °F 93% 30.06 in - Variable 2.3 mph - N/A   Clear
9:20 AM 33.8 °F - 30.2 °F 87% 30.09 in - Calm Calm - N/A   Clear
9:50 AM 37.4 °F - 32.0 °F 81% 30.09 in - Variable 2.3 mph - N/A   Clear
10:20 AM 37.4 °F - 32.0 °F 81% 30.09 in - Variable 2.3 mph - N/A   Clear
10:50 AM 41.0 °F - 33.8 °F 76% 30.09 in - SW 2.3 mph - N/A   Clear
11:20 AM 41.0 °F - 33.8 °F 76% 30.09 in - WSW 2.3 mph - N/A   Clear
11:50 AM 42.8 °F - 35.6 °F 76% 30.09 in - Variable 2.3 mph - N/A   Clear
12:20 PM 44.6 °F - 35.6 °F 71% 30.06 in 6.2 mi Calm Calm - N/A   Partly Cloudy
12:50 PM 46.4 °F - 35.6 °F 66% 30.06 in - Calm Calm - N/A   Clear
1:20 PM 46.4 °F - 33.8 °F 62% 30.06 in - Calm Calm - N/A   Clear
1:50 PM 50.0 °F - 33.8 °F 54% 30.06 in - Calm Calm - N/A   Clear
2:20 PM 50.0 °F - 32.0 °F 50% 30.06 in - Calm Calm - N/A   Clear
2:50 PM 48.2 °F - 33.8 °F 58% 30.06 in - NW 2.3 mph - N/A   Clear
3:20 PM 48.2 °F - 32.0 °F 54% 30.04 in - Calm Calm - N/A   Clear
3:50 PM 48.2 °F - 35.6 °F 62% 30.04 in - ENE 2.3 mph - N/A   Clear
4:20 PM 42.8 °F 39.3 °F 33.8 °F 70% 30.04 in - NE 5.8 mph - N/A   Clear
4:50 PM 41.0 °F 38.0 °F 32.0 °F 70% 30.06 in 6.2 mi ENE 4.6 mph - N/A   Partly Cloudy
5:20 PM 37.4 °F 33.8 °F 30.2 °F 75% 30.06 in 6.2 mi ENE 4.6 mph - N/A   Partly Cloudy
5:50 PM 33.8 °F 30.8 °F 28.4 °F 81% 30.06 in 6.2 mi East 3.5 mph - N/A   Partly Cloudy
6:20 PM 32.0 °F - 28.4 °F 87% 30.09 in 6.2 mi Calm Calm - N/A   Partly Cloudy
6:50 PM 28.4 °F - 24.8 °F 86% 30.09 in 6.2 mi Calm Calm - N/A   Partly Cloudy
7:20 PM 26.6 °F - 24.8 °F 93% 30.09 in - SW 2.3 mph - N/A   Clear
7:50 PM 26.6 °F - 26.6 °F 100% 30.09 in - SW 2.3 mph - N/A   Clear
8:20 PM 26.6 °F 22.6 °F 26.6 °F 100% 30.09 in - SSW 3.5 mph - N/A   Clear
8:50 PM 26.6 °F 22.6 °F 24.8 °F 93% 30.09 in - WSW 3.5 mph - N/A   Clear
9:20 PM 24.8 °F - 23.0 °F 93% 30.09 in - SW 2.3 mph - N/A   Clear
9:50 PM 26.6 °F - 24.8 °F 93% 30.12 in - Calm Calm - N/A   Clear
10:20 PM 24.8 °F - 24.8 °F 100% 30.12 in 6.2 mi Calm Calm - N/A   Unknown
10:50 PM 24.8 °F - 23.0 °F 93% 30.12 in 6.2 mi SE 2.3 mph - N/A   Unknown
11:20 PM 24.8 °F - 24.8 °F 100% 30.12 in 6.2 mi SSE 2.3 mph - N/A   Unknown
11:50 PM 24.8 °F - 23.0 °F 93% 30.12 in 6.2 mi South 2.3 mph - N/A   Unknown